Location: Unspecified
(35.7250°N, 0.0000°E)
Time: 05:56:55
(UTC+00:00)

Vanguard 1 Rocket - Pass Details

Date: 19 June 2019
Orbit: 650 x 4226 km, 34.3° (Epoch: 12 October)

Event Time Altitude Azimuth Distance (km) Brightness Sun altitude
Rises 16:05:48 0° 223° (SW) 8,143 12.7 36.3°
Reaches altitude 10° 16:12:21 10° 218° (SW) 6,745 12.3 35.0°
Maximum altitude 16:30:28 44° 155° (SSE) 3,093 10.2 31.3°
Drops below altitude 10° 16:40:25 10° 87° (E) 3,838 10.1 29.3°
Sets 16:43:00 0° 81° (E) 4,483 10.4 28.8°
